Rexburg, ID

11:40 PM MDT on August 28, 2016 (GMT -0600)
Rexburg-Madison County

Weather History for KRXE - December, 2012

Change the Weather History Date:

Tuesday, December 4, 2012

  Actual Average Record
Temperature  
Mean Temperature 35 °F 22 °F  
Max Temperature 42 °F 31 °F 48 °F (2007)
Min Temperature 28 °F 14 °F -13 °F (2013)
Degree Days  
Heating Degree Days 30 42  
Month to date heating degree days 104 167  
Since 1 July heating degree days 1791 2179  
Cooling Degree Days 0 0  
Month to date cooling degree days 0 0  
Year to date cooling degree days 419 208  
Moisture  
Dew Point 31 °F    
Average Humidity 78    
Maximum Humidity 96    
Minimum Humidity 59    
Precipitation  
Precipitation 0.10 in 0.03 in 0.80 in (1983)
Month to date precipitation 0.51 0.11  
Year to date precipitation 9.56 12.14  
Sea Level Pressure  
Sea Level Pressure 30.25 in    
Wind  
Wind Speed 7 mph (SSW)    
Max Wind Speed 20 mph    
Max Gust Speed 26 mph    
Visibility 10 miles    
Events Rain , Snow    
T = Trace of Precipitation, MM = Missing Value Source: NWS Daily Summary

Daily Weather History Graph

Daily Weather History Graph

Search for Another Location

Airport or City:

Trip Planner

Search our weather history database for the weather conditions in past years. The results will help you decide how hot, cold, wet, or windy it might be!

Date:

Astronomy

Dec. 04, 2012 Rise Set
Actual Time 7:45 AM MST 4:50 PM MST
Civil Twilight 7:12 AM MST 5:22 PM MST
Nautical Twilight 6:36 AM MST 5:58 PM MST
Astronomical Twilight 6:01 AM MST 6:33 PM MST
Moon 10:49 PM MST (12/4) 11:34 AM MST (12/4)
Length of Visible Light 10h 09m
Length of Day
9h 04m
Waning Gibbous, 69% of the Moon is Illuminated
Dec 4
Waning Gibbous
Dec 6
Last Quarter
Dec 13
New
Dec 19
First Quarter
Dec 28
Full

Hourly Weather History & Observations

Time (MST) Temp. Windchill Dew Point Humidity Pressure Visibility Wind Dir Wind Speed Gust Speed Precip Events Conditions
12:53 AM 28.0 °F 24.2 °F 24.1 °F 85% 30.33 in 10.0 mi NNW 3.5 mph - N/A   Clear
1:53 AM 28.0 °F - 24.1 °F 85% 30.32 in 10.0 mi Calm Calm - N/A   Partly Cloudy
2:53 AM 28.9 °F - 25.0 °F 85% 30.31 in 10.0 mi Calm Calm - N/A   Clear
3:53 AM 30.0 °F 26.5 °F 25.0 °F 82% 30.30 in 10.0 mi NNW 3.5 mph - N/A   Overcast
4:53 AM 30.9 °F - 26.1 °F 82% 30.30 in 10.0 mi Calm Calm - N/A   Overcast
5:53 AM 30.9 °F 27.5 °F 26.1 °F 82% 30.28 in 10.0 mi NNW 3.5 mph - N/A   Overcast
6:53 AM 35.1 °F 29.3 °F 23.0 °F 61% 30.30 in 10.0 mi SSW 6.9 mph - N/A   Overcast
7:53 AM 35.1 °F 28.6 °F 24.1 °F 64% 30.30 in 10.0 mi South 8.1 mph - N/A   Overcast
8:53 AM 37.0 °F 28.1 °F 26.1 °F 65% 30.30 in 10.0 mi South 15.0 mph 19.6 mph N/A   Overcast
9:21 AM 33.8 °F 23.9 °F 30.2 °F 87% 30.26 in 3.0 mi South 15.0 mph 26.5 mph 0.00 in Snow Light Snow
9:53 AM 34.0 °F 24.6 °F 32.0 °F 92% 30.34 in 10.0 mi South 13.8 mph 20.7 mph 0.00 in   Overcast
10:53 AM 35.1 °F 28.6 °F 30.0 °F 82% 30.32 in 10.0 mi South 8.1 mph - N/A   Overcast
11:53 AM 36.0 °F 28.0 °F 30.0 °F 79% 30.29 in 10.0 mi South 11.5 mph - N/A   Overcast
12:53 PM 37.9 °F 32.1 °F 30.9 °F 76% 30.30 in 10.0 mi SSW 8.1 mph - N/A   Overcast
1:51 PM 37.4 °F - 33.8 °F 87% 30.22 in 10.0 mi Calm Calm - N/A   Overcast
1:53 PM 37.9 °F - 33.1 °F 83% 30.29 in 10.0 mi Calm Calm - N/A   Overcast
2:53 PM 37.9 °F 33.5 °F 33.1 °F 83% 30.27 in 10.0 mi SW 5.8 mph - 0.00 in   Overcast
3:16 PM 39.2 °F 35.0 °F 33.8 °F 81% 30.20 in 10.0 mi SSW 5.8 mph - N/A   Overcast
3:39 PM 39.2 °F 35.0 °F 33.8 °F 81% 30.21 in 10.0 mi WSW 5.8 mph - N/A   Overcast
3:53 PM 39.9 °F 35.8 °F 34.0 °F 79% 30.26 in 10.0 mi SSW 5.8 mph - 0.00 in Rain Light Rain
4:32 PM 39.2 °F 35.0 °F 33.8 °F 81% 30.19 in 10.0 mi South 5.8 mph - 0.00 in   Overcast
4:53 PM 39.9 °F 34.5 °F 34.0 °F 79% 30.23 in 10.0 mi South 8.1 mph - 0.00 in   Overcast
5:53 PM 41.0 °F 35.2 °F 35.1 °F 79% 30.22 in 10.0 mi SSW 9.2 mph - N/A   Overcast
6:53 PM 41.0 °F 38.0 °F 35.1 °F 79% 30.22 in 10.0 mi SW 4.6 mph - N/A   Overcast
7:53 PM 39.9 °F 34.5 °F 37.0 °F 89% 30.22 in 8.0 mi SSW 8.1 mph - 0.02 in Rain Light Rain
8:53 PM 39.9 °F 33.9 °F 37.0 °F 89% 30.19 in 9.0 mi South 9.2 mph - 0.05 in Rain Light Rain
9:53 PM 39.9 °F 32.1 °F 37.0 °F 89% 30.18 in 10.0 mi South 13.8 mph 20.7 mph 0.03 in Rain Light Rain
10:53 PM 39.9 °F 32.1 °F 37.0 °F 89% 30.16 in 10.0 mi South 13.8 mph 21.9 mph 0.00 in   Overcast
11:36 PM 39.2 °F 31.2 °F 37.4 °F 93% 30.11 in 10.0 mi South 13.8 mph 20.7 mph N/A   Overcast
11:53 PM 41.0 °F 32.8 °F 36.0 °F 82% 30.14 in 10.0 mi South 16.1 mph - N/A   Overcast